[[{"header":{"parameterUnit":"m.s-1","parameterCategory":1,"la1":30.2991,"la2":30.254,"lo1":-89.0895,"lo2":-89.0444,"dy":0.0017,"dx":0.0017,"nx":28,"ny":28,"refTime":"2023-11-06T09:00:00:Z","depth":0,"parameterNumber":2,"parameterNumberName":"U-component_of_WINDS"},"data":[0,0,0,0,0,0,0,0,0,0,0,0,0,0,0,0,0,0,0,0,0,0,0,0,0,0,0,0,0,0,0,0,0,0,0,0,0,0,0,0,0,0,0,0,0,0,0,0,0,0,0,0,0,0,0,0,0,0,0.8735,0.8734,0,0.8664,0.8663,0.8662,0.8556,0.8554,0.8552,0.855,0.848,0.848,0.848,0,0,0,0,0,0,0,0,0,0,0,0,0,0.8783,0.8782,0.8735,0.8734,0.8734,0.8664,0.8663,0.8662,0.8556,0.8554,0.8552,0.8549,0.848,0.848,0.848,0,0,0,0,0,0,0,0,0,0,0,0,0,0.8742,0.8782,0.8735,0.8672,0.8666,0.8664,0.8663,0.8662,0.8557,0.8554,0.8551,0.8548,0.848,0.848,0.848,0.8535,0,0,0.848,0.8479,0,0,0,0,0,0,0,0,0.8744,0.874,0.8682,0.8677,0.8669,0.8616,0.8654,0.862,0.8557,0.8598,0.855,0.8547,0.8528,0.8524,0.8516,0.8532,0.8529,0.848,0.8479,0.8479,0.8479,0,0,0,0,0,0,0,0.8747,0.8743,0.8707,0.8682,0.8674,0.8648,0.8639,0.8647,0.858,0.8594,0.8586,0.8579,0.8524,0.8517,0.8514,0.8528,0.848,0.8479,0.8479,0.8479,0.8587,0.859,0,0,0,0,0,0,0.8759,0.8746,0.8709,0.8705,0.8701,0.865,0.864,0.8636,0.8579,0.8568,0.8582,0.8575,0.8519,0.8514,0.8511,0.8574,0.8479,0.8479,0.8479,0.8584,0.8587,0.8591,0,0,0,0,0,0,0.876,0.8757,0.8712,0.8723,0.8715,0.8652,0.8648,0.8636,0.8629,0.857,0.8558,0.8587,0.8516,0.8511,0.853,0.857,0.8479,0.8479,0.858,0.8585,0.8589,0.8699,0,0,0,0,0,0,0.8762,0.8758,0.8778,0.8724,0.8715,0.8732,0.8651,0.8637,0.8629,0.8619,0.8571,0.8561,0.8514,0.8531,0.853,0.8568,0.8479,0.8577,0.8582,0.8588,0.8692,0.8707,0.8719,0,0,0,0,0,0.8764,0.8812,0.8779,0.8776,0.8739,0.8735,0.8729,0.8673,0.8632,0.8652,0.8614,0.8563,0.8565,0.8534,0.8532,0.857,0.8574,0.8581,0.8587,0.8685,0.8704,0.8719,0,0,0,0,0,0,0.8873,0.8804,0.8767,0.8799,0.8773,0.8717,0.874,0.8694,0.8681,0.8672,0.8603,0.8593,0.8622,0.8597,0.8564,0.8621,0.8562,0.8568,0.8637,0.8654,0.8667,0.8674,0.8479,0,0,0,0,0,0.8901,0.8902,0.8842,0.8876,0.8865,0.8805,0.8801,0.8759,0.8731,0.872,0.8683,0.8658,0.8653,0.8651,0.8643,0.8686,0.8676,0.8712,0.8726,0.8737,0.8745,0.8767,0.8783,0.8612,0.8612,0.8612,0,0,0.8958,0.8921,0.8926,0.8897,0.8872,0.8876,0.8797,0.8804,0.8807,0.8721,0.8737,0.8709,0.8677,0.8708,0.872,0.8689,0.8789,0.8746,0.8756,0.8757,0.8776,0.8792,0.8807,0.8617,0.8616,0.8615,0,0,0.9066,0.9036,0.9062,0.9039,0.9002,0.8961,0.8968,0.8918,0.8896,0.891,0.8846,0.8848,0.8841,0.8821,0.881,0.8908,0.8861,0.8907,0.8982,0.9004,0.9018,0.903,0.9067,0.9081,0.8914,0.8915,0.8915,0,0.9143,0.9145,0.9081,0.9093,0.9083,0.9003,0.903,0.901,0.8974,0.8969,0.8933,0.8923,0.8895,0.8921,0.8946,0.8938,0.8945,0.8914,0.9021,0.9032,0.9042,0.9077,0.9091,0.8921,0.892,0.8919,0.8919,0,0.9243,0.9246,0.9271,0.9236,0.9228,0.9247,0.9187,0.9187,0.9146,0.911,0.9126,0.9089,0.9073,0.9076,0.9036,0.9097,0.9079,0.9033,0.8972,0.9065,0.9097,0.911,0.893,0.8927,0.8926,0.8924,0,0,0.942,0.9348,0.9359,0.9343,0.9295,0.9297,0.9313,0.9296,0.9298,0.9274,0.9287,0.9282,0.9239,0.9227,0.9184,0.9203,0.9286,0.9155,0.9153,0.9183,0.9354,0.9391,0.9408,0.9253,0.9255,0.9257,0.9358,0,0.952,0.9542,0.9484,0.9522,0.9524,0.9448,0.9462,0.9435,0.9401,0.9399,0.9362,0.9361,0.9303,0.9295,0.9311,0.9273,0.932,0.9265,0.9267,0.9268,0.9281,0.9424,0.9463,0.956,0.9369,0.9371,0.9373,0,0.964,0.9623,0.966,0.9611,0.961,0.9624,0.9604,0.9602,0.957,0.9544,0.953,0.9479,0.9492,0.9431,0.9449,0.9413,0.941,0.9391,0.9393,0.9394,0.9329,0.9431,0.9589,0.9605,0.9391,0.939,0.9389,0,0.9769,0.9754,0.9775,0.9763,0.9706,0.9717,0.9694,0.9659,0.9653,0.9635,0.9631,0.9615,0.9608,0.9598,0.9545,0.9505,0.957,0.9504,0.9551,0.9553,0.9571,0.9571,0.9733,0.9564,0.9564,0.9563,0.9563,0,0.9889,0.9916,0.9832,0.9845,0.9873,0.9806,0.9836,0.9805,0.9774,0.9781,0.9713,0.9721,0.9649,0.9649,0.9607,0.963,0.9626,0.9607,0.9597,0.9615,0.9618,0.9615,0.9608,0.9567,0.9566,0.9566,0.9565,0,1.0039,0.9984,1.0002,0.9945,0.9932,0.9955,0.9907,0.9918,0.9878,0.9888,0.9886,0.9826,0.9823,0.9767,0.9753,0.9724,0.9765,0.974,0.9776,0.9769,0.982,0.9818,0.9989,1.0009,0.9824,0.9826,0.9828,0,1.0121,1.0139,1.0085,1.0084,1.0064,1.0063,1.0056,0.999,0.9986,0.9951,0.9966,0.9957,0.9947,0.9945,0.9901,0.989,0.9866,0.9926,0.9864,0.9883,0.987,0.9871,0.9874,0.9941,0.9943,0.9945,0.9947,0,1.0273,1.0244,1.0236,1.0219,1.0212,1.0195,1.0174,1.0178,1.0106,1.0104,1.01,1.0092,1.0076,1.0069,1.0049,1.0026,0.9976,0.9966,0.9977,0.9998,1.0019,1.0011,0.9816,0.9963,0.9962,0.9961,0.996,0.9959,1.0393,1.0406,1.037,1.0363,1.034,1.0322,1.033,1.0291,1.0286,1.0268,1.0229,1.0231,1.0198,1.0167,1.0148,1.0149,1.0119,1.0134,1.0138,1.0144,1.0155,1.0016,1.0145,1.0145,1.0144,1.0144,1.0143,0,1.0544,1.0516,1.0511,1.0483,1.0478,1.0428,1.0402,1.0402,1.0405,1.0378,1.0369,1.0364,1.0357,1.0311,1.0299,1.0309,1.0285,1.0308,1.0308,1.0304,1.0182,1.0175,1.0327,1.0327,1.0327,1.0327,1.0327,1.0327,1.0622,1.0643,1.061,1.0619,1.059,1.0591,1.0581,1.0565,1.0543,1.0541,1.0534,1.0503,1.047,1.0454,1.0446,1.0432,1.0432,1.0464,1.0443,1.033,1.0313,1.0296,1.029,1.0463,1.0463,1.0566,1.0567,1.0568]},{"header":{"parameterUnit":"m.s-1","parameterCategory":1,"la1":30.2991,"la2":30.254,"lo1":-89.0895,"lo2":-89.0444,"dy":0.0017,"dx":0.0017,"nx":28,"ny":28,"refTime":"2023-11-06T09:00:00:Z","depth":0,"parameterNumber":3,"parameterNumberName":"V-component_of_WINDS"},"data":[0,0,0,0,0,0,0,0,0,0,0,0,0,0,0,0,0,0,0,0,0,0,0,0,0,0,0,0,0,0,0,0,0,0,0,0,0,0,0,0,0,0,0,0,0,0,0,0,0,0,0,0,0,0,0,0,0,0,-0.0837,-0.0839,0,-0.0943,-0.0944,-0.0946,-0.1047,-0.1049,-0.105,-0.1051,-0.1158,-0.1159,-0.1161,0,0,0,0,0,0,0,0,0,0,0,0,0,-0.0721,-0.0723,-0.0837,-0.0839,-0.084,-0.0943,-0.0944,-0.0946,-0.1047,-0.1049,-0.105,-0.1052,-0.1157,-0.1159,-0.1161,0,0,0,0,0,0,0,0,0,0,0,0,0,-0.0794,-0.0723,-0.0837,-0.0903,-0.091,-0.0943,-0.0945,-0.0946,-0.1047,-0.1049,-0.1051,-0.1052,-0.1156,-0.1159,-0.1161,-0.1137,0,0,-0.1169,-0.117,0,0,0,0,0,0,0,0,-0.0789,-0.0798,-0.0892,-0.0898,-0.0906,-0.0984,-0.0943,-0.101,-0.1046,-0.0995,-0.1051,-0.1053,-0.1098,-0.1106,-0.1121,-0.1142,-0.1147,-0.1169,-0.117,-0.1171,-0.1172,0,0,0,0,0,0,0,-0.0784,-0.0794,-0.0879,-0.0893,-0.0902,-0.0927,-0.0939,-0.0956,-0.1034,-0.0999,-0.1007,-0.1018,-0.1102,-0.1118,-0.1124,-0.1148,-0.1169,-0.1171,-0.1172,-0.1173,-0.1154,-0.1152,0,0,0,0,0,0,-0.0769,-0.0789,-0.0876,-0.0882,-0.0851,-0.0927,-0.0941,-0.0957,-0.1034,-0.1048,-0.1016,-0.1023,-0.1113,-0.1121,-0.1128,-0.1105,-0.1171,-0.1174,-0.1175,-0.1156,-0.1154,-0.1152,0,0,0,0,0,0,-0.0766,-0.0776,-0.0872,-0.0838,-0.0852,-0.0927,-0.0944,-0.0958,-0.0974,-0.1047,-0.1061,-0.1018,-0.1115,-0.1125,-0.1134,-0.111,-0.1175,-0.1177,-0.1158,-0.1155,-0.1153,-0.1057,0,0,0,0,0,0,-0.0763,-0.0775,-0.0766,-0.0837,-0.0853,-0.0876,-0.0943,-0.0959,-0.0978,-0.0987,-0.1053,-0.1066,-0.1117,-0.113,-0.1136,-0.1114,-0.1179,-0.1161,-0.1157,-0.1154,-0.1063,-0.1051,-0.1041,0,0,0,0,0,-0.0758,-0.0735,-0.0766,-0.0775,-0.0845,-0.0874,-0.0884,-0.0944,-0.0976,-0.0968,-0.1015,-0.1063,-0.1112,-0.113,-0.1138,-0.1116,-0.1163,-0.1158,-0.1154,-0.1068,-0.1053,-0.1042,0,0,0,0,0,0,-0.0659,-0.0746,-0.078,-0.0779,-0.0819,-0.0891,-0.0883,-0.0928,-0.0958,-0.0965,-0.1039,-0.1053,-0.1053,-0.1086,-0.1105,-0.1097,-0.1144,-0.1141,-0.1075,-0.1063,-0.1052,-0.1044,-0.1181,0,0,0,0,0,-0.0638,-0.0655,-0.0729,-0.0721,-0.0739,-0.0807,-0.0823,-0.0866,-0.0909,-0.0926,-0.0974,-0.1014,-0.1038,-0.1052,-0.1079,-0.1068,-0.1083,-0.1057,-0.1047,-0.1037,-0.1034,-0.103,-0.1019,-0.1137,-0.1137,-0.1137,0,0,-0.0592,-0.0642,-0.0648,-0.0702,-0.0738,-0.0753,-0.0821,-0.0834,-0.0846,-0.0928,-0.094,-0.0976,-0.1025,-0.1024,-0.1026,-0.1052,-0.1005,-0.1032,-0.1024,-0.1025,-0.1024,-0.1013,-0.1003,-0.1134,-0.1135,-0.1135,0,0,-0.0518,-0.0557,-0.0555,-0.0589,-0.0642,-0.0688,-0.0687,-0.0753,-0.0781,-0.0794,-0.0855,-0.087,-0.091,-0.0943,-0.0965,-0.0902,-0.0947,-0.0909,-0.0852,-0.0848,-0.0839,-0.0831,-0.0808,-0.0798,-0.0905,-0.0905,-0.0904,0,-0.0455,-0.0482,-0.0548,-0.0558,-0.0579,-0.0655,-0.0652,-0.0682,-0.0741,-0.0754,-0.0782,-0.0834,-0.0872,-0.0879,-0.0864,-0.0879,-0.088,-0.0901,-0.0835,-0.0827,-0.0821,-0.08,-0.0791,-0.0899,-0.09,-0.0901,-0.0901,0,-0.0401,-0.0418,-0.041,-0.0465,-0.0486,-0.0489,-0.0555,-0.0569,-0.061,-0.0652,-0.0664,-0.0713,-0.075,-0.0755,-0.0796,-0.0768,-0.0782,-0.0821,-0.087,-0.0804,-0.0785,-0.0777,-0.0892,-0.0894,-0.0895,-0.0897,0,0,-0.0267,-0.0359,-0.0355,-0.038,-0.0445,-0.0459,-0.0465,-0.0502,-0.0512,-0.055,-0.0556,-0.0589,-0.0625,-0.065,-0.0695,-0.0691,-0.0637,-0.073,-0.0733,-0.071,-0.0608,-0.0578,-0.0567,-0.0668,-0.0666,-0.0665,-0.0604,0,-0.0203,-0.022,-0.028,-0.0279,-0.0295,-0.0367,-0.0372,-0.0412,-0.0451,-0.0471,-0.0515,-0.0536,-0.0583,-0.0598,-0.0597,-0.0643,-0.0617,-0.0649,-0.0674,-0.0674,-0.0658,-0.0558,-0.0526,-0.0465,-0.0597,-0.0596,-0.0595,0,-0.0131,-0.0164,-0.0164,-0.0228,-0.0237,-0.0241,-0.0279,-0.0297,-0.0343,-0.0372,-0.0399,-0.0449,-0.0459,-0.0505,-0.0519,-0.054,-0.0553,-0.0577,-0.0577,-0.058,-0.063,-0.0558,-0.0448,-0.0438,-0.0584,-0.0585,-0.0586,0,-0.0032,-0.0077,-0.0083,-0.0103,-0.0177,-0.0178,-0.0209,-0.0257,-0.0275,-0.0308,-0.0321,-0.0354,-0.0373,-0.0397,-0.0455,-0.0483,-0.0463,-0.0513,-0.0486,-0.0485,-0.0478,-0.0477,-0.0367,-0.0488,-0.0488,-0.0488,-0.0488,0,0.0046,0.0049,-0.004,-0.0043,-0.0042,-0.011,-0.0107,-0.0144,-0.0186,-0.0198,-0.0262,-0.0271,-0.0347,-0.0365,-0.041,-0.0415,-0.0423,-0.0446,-0.0458,-0.0439,-0.0436,-0.0449,-0.0454,-0.0486,-0.0487,-0.0487,-0.0487,0,0.0157,0.0097,0.0086,0.0017,-0.0,0.0004,-0.0055,-0.0061,-0.0104,-0.0118,-0.0125,-0.0193,-0.0217,-0.0278,-0.0317,-0.0348,-0.034,-0.0362,-0.0324,-0.0332,-0.0301,-0.0302,-0.0194,-0.0183,-0.0311,-0.031,-0.0309,0,0.0211,0.0211,0.0142,0.013,0.0102,0.0082,0.0063,-0.0004,-0.0021,-0.0073,-0.0072,-0.0101,-0.0128,-0.0163,-0.0216,-0.0246,-0.0269,-0.0229,-0.0274,-0.0256,-0.0268,-0.0267,-0.0266,-0.0219,-0.0217,-0.0216,-0.0215,0,0.0314,0.0284,0.0259,0.0224,0.0203,0.0173,0.0139,0.0132,0.0057,0.0041,0.0016,-0.0005,-0.0046,-0.0074,-0.0113,-0.0144,-0.0191,-0.02,-0.0196,-0.0176,-0.0154,-0.0165,-0.0296,-0.0202,-0.0203,-0.0204,-0.0205,-0.0206,0.0398,0.0395,0.0347,0.0321,0.0288,0.0258,0.0249,0.0205,0.0182,0.0143,0.0105,0.0084,0.0038,-0.0019,-0.0046,-0.0064,-0.0088,-0.0082,-0.008,-0.0077,-0.0068,-0.0152,-0.0071,-0.0072,-0.0072,-0.0072,-0.0073,0,0.0498,0.0463,0.044,0.0394,0.0375,0.0331,0.0291,0.0278,0.0259,0.0221,0.0195,0.0167,0.0139,0.0085,0.0053,0.005,0.0027,0.0044,0.0044,0.0037,-0.0045,-0.0045,0.0062,0.0062,0.0062,0.0062,0.0062,0.0062,0.0548,0.0541,0.0507,0.0484,0.0448,0.0427,0.0408,0.038,0.0349,0.0319,0.0296,0.026,0.0215,0.018,0.0153,0.0138,0.013,0.0153,0.0131,0.0056,0.0043,0.0031,0.003,0.0152,0.0152,0.0215,0.0215,0.0216]}]]